星链-2528 (STARLINK-2528 )

导读

STARLINK-2528是美国SpaceX公司星链星座项目中的一颗低轨通信卫星,于2021年4月29日发射升空,归入星链第一代星座组网。作为星链全球互联网星座的组成部分,运行在近地轨道,依托相控阵通信技术,为地面偏远地区、海洋和空中用户提供高速低延迟互联网接入,协助缩小数字鸿沟,同时可支持应急通信与商业服务,目前处于在轨运行状态。

基本信息
目录编号:
48307
目录名称:
STARLINK-2528
国际标识:
2021-036AH
轨道中心:
EARTH
卫星名称:
星链-2528
卫星全名:
星链-2528 (STARLINK-2528 )
卫星状态:
已陨落 最后检测时间 2024-07-22
发射日期:
2021-04-29 UTC
国别 :
美国 (US)
星等 :
--
该卫星已列入 空间交会检测服务 Space Conjunction Data Service (SCDS) ,当前飞行风险评估等级: 无高风险
轨道信息
数据来源 国际轨道数据
星历时间: 2024-07-18T18:47:11+0800
轨道信息已过期786天
半长轴: 6613.223km
偏心率: 0.0001853
轨道倾角: 53.046°
近地点辐角 22.504°
升交点赤经 239.406°
平近点角 7.406°
近地点: 233.862km
远地点: 236.314km
周期: 89.203分钟
每日圈数: 16.142957
详细信息
固有亮度:
5
最大亮度:
2.5
卫星平台:
Starlink V1.0
覆盖范围:
全球
运营商:
太空探索技术公司
运营商所在国:
美国
制造商(研发单位):
太空探索技术公司
制造商所在国:
美国
使用方式:
暂无
卫星简介
星链(Starlink)计划是由太空探索技术公司(SpaceX)提出的一个巨型低轨卫星互联网星座项目,计划在2019年至2024年间在太空搭建由约1.2万颗卫星组成的“星链”网络,其中1584颗将部署在地球上空550千米处的近地轨道,并从2020年开始工作。该卫星仍在工作。
与全量物体交会距离演化趋势
与全量物体交会风险概率演化趋势